www.pogodaiklimat.ru

ПОГОДА в Ханфорде, CA

  • Прогноз погоды в Ханфорде
  • Монитор погоды в Ханфорде
  • Климат в Ханфорде

АРХИВ ПОГОДЫ в Ханфорде

Время (UTC), дата Ветер
(напр.,м/с)
 
Видим.   Явления Облачность Т
(С)
Тd
(С)
f
(%)
Тe
(С)
Тes
(С)
Комфортность

P
(гПа)

Po
(гПа)
Тmin
(С)
Tmax
(С)
R
(мм)
SD
(см)
18:53 18.08 ЮЗ  16 км    ясно  +31.1  +8.9  25  +30  +45  жарко  1010.6  1001.9         
19:53 18.08 ЮЗ  16 км    2/0 3300 м
[средняя] 
+32.2  +8.3  23  +31  +43  жарко  1010.2  1001.2         
20:53 18.08 ЮЗ  16 км    8/0 3300 м
[средняя] 
+33.9  +6.7  19  +32  +38  жарко  1009.5  1000.5         
21:53 18.08 нст  16 км    8/0 3300 м
[средняя] 
+35.0  +7.2  18  +33  +39  жарко  1008.9  999.9         
22:53 18.08 нст  16 км    8/0 3300 м
[средняя] 
+35.6  +8.9  20  +34  +39  очень
жарко 
1008.5  999.5  +27.8  +36.1     
23:53 18.08 СЗ  16 км    8/0 3300 м
[средняя] 
+35.0  +6.1  17  +33  +35  жарко  1008.2  999.5         
00:53 19.08 С  16 км    8/0 3300 м
[средняя] 
+33.9  +7.8  20  +32  +33  жарко  1008.2  999.2         
01:53 19.08 С  16 км    8/0 3300 м
[средняя] 
+29.4  +11.1  32  +30  +30  жарко  1008.3  999.5         
02:53 19.08 СЗ  16 км    ясно  +28.9  +12.2  36  +30  +30  жарко  1009.1  1000.2         
03:53 19.08 СЗ  16 км    ясно  +26.1  +13.3  45  +28  +28  жарко  1010.0  1001.2         
04:53 19.08 СЗ  16 км    ясно  +24.4  +11.7  45  +26  +26  жарко  1010.5  1001.5  +24.4  +35.6     
05:53 19.08 СЗ  16 км    ясно  +23.9  +11.1  45  +25  +25  комфорт  1010.8  1001.9         
06:53 19.08 СЗ  16 км    ясно  +22.2  +11.7  51  +24  +24  комфорт  1011.0  1002.2         
07:53 19.08 СЗ  16 км    ясно  +21.1  +11.1  53  +23  +23  комфорт  1011.2  1002.2         
08:53 19.08 СЗ  16 км    ясно  +20.0  +12.2  61  +22  +22  комфорт  1011.7  1002.9         
09:53 19.08 СЗ  16 км    ясно  +18.9  +12.8  68  +20  +20    1012.0  1003.2         
10:53 19.08 СЗ  16 км    ясно  +17.8  +12.8  73  +17  +17    1012.2  1003.2  +17.8  +24.4     
11:53 19.08 СЗ  16 км    ясно  +17.2  +12.8  75  +17  +17    1012.4  1003.6         
12:53 19.08 СЗ  16 км    ясно  +17.2  +13.3  78  +17  +17    1013.1  1004.2         
13:53 19.08 СЗ  16 км    ясно  +18.3  +13.3  73  +19  +19    1013.6  1004.6         
14:53 19.08   16 км    ясно  +21.7  +13.9  61  +25  +28  комфорт  1013.6  1004.6         
15:53 19.08 нст  16 км    ясно  +23.9  +14.4  55  +26  +33  жарко  1013.9  1004.9         
16:53 19.08 нст  16 км    ясно  +26.1  +14.4  48  +28  +40  жарко  1013.8  1004.9  +17.2  +26.1     
17:53 19.08 нст  16 км    ясно  +28.9  +13.9  40  +31  +43  жарко  1013.6  1004.6         
18:53 19.08     16 км    ясно  +30.6  +12.2  32  +31  +55  опасность
солнечного
удара 
1013.1  1004.2         
19:53 19.08     16 км    ясно  +32.2  +11.7  29  +32  +58  опасность
солнечного
удара 
1012.7  1003.9         
20:53 19.08 СЗ  16 км    5/0 3300 м
[средняя] 
+32.8  +11.7  28  +33  +43  жарко  1012.1  1003.2         
21:53 19.08 СЗ  16 км    8/0 3300 м
[средняя] 
+35.0  +9.4  21  +34  +37  очень
жарко 
1011.4  1002.6         
22:53 19.08 нст  16 км    8/0 3300 м
[средняя] 
+35.0  +9.4  21  +34  +37  очень
жарко 
1011.0  1002.2  +26.1  +35.0     
23:53 19.08 СЗ  16 км    8/0 3300 м
[средняя] 
+34.4  +9.4  22  +33  +35  жарко  1010.7  1001.9         
00:53 20.08 СЗ  16 км    8/0 3300 м
[средняя] 
+33.3  +11.1  26  +33  +34  жарко  1010.3  1001.5         
01:53 20.08 СЗ  16 км    8/0 3300 м
[средняя] 
+31.1  +13.9  35  +33  +33  душно  1010.6  1001.9         
02:53 20.08 СЗ  16 км    2/0 3600 м
[средняя] 
+28.9  +15.0  43  +31  +31  жарко  1011.2  1002.2         
03:53 20.08 СЗ  16 км    ясно  +26.7  +13.3  44  +29  +29  жарко  1012.0  1003.2         
04:53 20.08 СЗ  16 км    ясно  +25.0  +12.8  47  +27  +27  жарко  1012.1  1003.2  +25.0  +35.6     
05:53 20.08 СЗ  16 км    ясно  +23.9  +13.9  54  +26  +26  жарко  1012.6  1003.6         
06:53 20.08 СЗ  16 км    ясно  +22.2  +13.9  59  +25  +25  комфорт  1012.5  1003.6         
07:53 20.08 СЗ  16 км    ясно  +20.6  +14.4  68  +23  +23  комфорт  1012.4  1003.6         
08:53 20.08 СЗ  16 км    ясно  +20.0  +13.9  68  +22  +22  комфорт  1012.6  1003.6         
09:53 20.08 СЗ  16 км    ясно  +19.4  +13.9  70  +21  +21  комфорт  1012.8  1003.9         
10:53 20.08 СЗ  16 км    ясно  +18.3  +13.9  76  +18  +18    1013.3  1004.2  +18.3  +25.0     
11:53 20.08 СЗ  16 км    ясно  +17.8  +13.9  78  +17  +17    1013.5  1004.6         
12:53 20.08 СЗ  16 км    ясно  +17.8  +13.9  78  +18  +18    1014.3  1005.2         
13:53 20.08 СЗ  16 км    ясно  +19.4  +13.3  68  +21  +21  комфорт  1014.6  1005.6         
14:53 20.08 СЗ  16 км    ясно  +21.7  +13.9  61  +25  +26  комфорт  1014.9  1005.9         
15:53 20.08 СЗ  16 км    ясно  +23.9  +13.9  54  +26  +30  жарко  1015.1  1006.2         
16:53 20.08   16 км    ясно  +26.1  +13.9  47  +28  +42  жарко  1015.2  1006.2  +17.8  +26.1     
17:53 20.08 З  16 км    ясно  +28.3  +13.3  40  +30  +43  жарко  1014.8  1005.9         

 

Местоположение метеостанции Hanford Municipal Airport: широта 36.3186 долгота -119.6289 высота над уровнем моря 74 м.

В архиве по умолчанию представлена погода в Ханфорде за последние 1-2 суток. Обновление информации о фактической погоде в базе происходит ежечасно! Архивные данные за месяц целиком и за предыдущие месяцы Вы можете получить, выбрав интересующий диапазон дат из раскрывающегося списка и нажав кнопку "Ввод!".

Внимание! Архив погоды МЕТАР в базе сайта хранится не более 60 дней. Нет смысла пытаться выбрать более раннюю дату.

Внимание! Время в таблицах - всемирное. Для получения местного времени необходимо прибавить поправку, которая в Ханфорде равна -8 ч.

Ветер - указаны скорость ветра в м/с и направление, откуда дует ветер: С - северный, СВ - северо-восточный, В - восточный, ЮВ - юго-восточный, Ю - южный, ЮЗ - юго-западный, З - западный, СЗ - северо-западный.
Видимость - горизонтальная дальность видимости в метрах или километрах. При видимости от 1 до 10 км при отсутствии осадков обычно наблюдается дымка, при ухудшении видимости до 1 км и менее - туман. В сухую погоду видимость может ухудшаться дымом, пылью или мглою.
Атмосферные явления - указаны явления, наблюдавшиеся в указанный момент времени.
Облачность - указаны через наклонную черту верхняя и нижняя облачность в баллах и высота нижней границы облаков в метрах. Внимание: облачность, как и прочие метеорологические величины в США измеряются автоматическими метеостанциями. Указанные значения в баллах носят условный характер и показывают процент времени, в течение которого, в среднем, лазерный луч высотомера отражался от облаков обратно.
T - Температура воздуха - температура, измеренная на высоте 2 м над землей.
Td - Температура точки росы - температура, при понижении до которой содержащийся в воздухе водяной пар достигнет насыщения.
f - Относительная влажность воздуха - влажноcть воздуха, измеренная на высоте 2 м над землей.
Te - Эффективная температура - температура, которую ощущает одетый по сезону человек в тени. Характеристика душности погоды. При расчете учитывается влияние влажности воздуха и скорости ветра на теплоощущения человека.
Tes - Эффективная температура на солнце - температура, которую ощущает человек, с поправкой на солнечный нагрев. Характеристика знойности погоды. Зависит от высоты солнца над горизонтом, облачности и скорости ветра. Ночью, в пасмурную погоду, а также при ветре 12 м/с и более поправка равна нулю.
P - Атмосферное давление - приведенное к уровню моря атмосферное давление.
Po - Атмосферное давление - измеренное на уровне метеостанции атмосферное давление.
Tmin - Минимальная температура - минимум температуры воздуха на высоте 2 м над землей.
Tmax - Максимальная температура - максимум температуры воздуха на высоте 2 м над землей.
R - Количество осадков - Количество выпавших осадков за 3 или 6 часов, мм.
SD - Снежный покров - Высота снежного покрова, см.